Location: Cherry Springs State Park
(41.6616°N, 77.8240°W)
Time: 01:58:21
(UTC-04:00)

Amateur Radio Satellites - All Passes

Search period start: 01 October 2014 01:28
Search period end: 02 October 2014 01:28
Location: Cherry Springs State Park, 41.6616°N, 77.8240°W

Satellite Date Start Highest point End Downlink Frequencies (MHz)
Time Altitude Azimuth
KITSAT 1 01 Oct 01:39:00 01:46:31 40° 47° (NE) 01:53:59 435.175 FM
JAS-1B 01 Oct 01:42:55 01:44:21 11° 89° (E) 01:45:48 435.800 - 435.900 CW/SSB
Oscar 19 01 Oct 02:17:56 02:22:44 39° 98° (E) 02:27:30 437.125 CW, 437.150 USB
ISS 01 Oct 02:21:53 02:23:53 15° 4° (N) 02:25:53 145.800 FM
ITAMSAT 1 01 Oct 02:29:49 02:33:46 21° 93° (E) 02:37:41 435.822 SSB
Uribyol 2 01 Oct 02:30:38 02:34:45 23° 94° (E) 02:38:51 436.500 FM
Oscar 16 01 Oct 02:58:45 03:03:57 84° 285° (WNW) 03:09:05 437.025 USB, Beacon 2401.1428
SO-50 01 Oct 03:05:01 03:08:09 17° 39° (NE) 03:11:17 436.795 FM
AO-27 01 Oct 03:07:25 03:12:30 48° 100° (E) 03:17:32 436.795 MHz FM
AO-Echo 01 Oct 03:09:40 03:14:39 63° 101° (ESE) 03:19:46 ?
RS-15 01 Oct 03:12:49 03:23:52 86° 120° (ESE) 03:34:51 29.354 - 29.394 USB, Beacon 29.352 USB
JAS-1B 01 Oct 03:30:01 03:35:44 88° 285° (WNW) 03:41:54 435.800 - 435.900 CW/SSB
Gurwin Techsat 1B 01 Oct 03:31:13 03:36:13 40° 98° (E) 03:41:10 435.225 FM
KITSAT 1 01 Oct 03:34:22 03:42:08 53° 247° (WSW) 03:49:51 435.175 FM
OPAL 01 Oct 03:46:20 03:49:37 17° 59° (ENE) 03:52:53 ?
Oscar 19 01 Oct 03:57:40 04:01:53 26° 295° (WNW) 04:06:04 437.125 CW, 437.150 USB
ISS 01 Oct 03:58:25 04:01:23 29° 24° (NNE) 04:04:20 145.800 FM
TMSAT-1 01 Oct 03:59:51 04:05:04 54° 100° (E) 04:10:14 436.925 FM
ITAMSAT 1 01 Oct 04:08:28 04:13:29 48° 290° (WNW) 04:18:29 435.822 SSB
Uribyol 2 01 Oct 04:09:27 04:14:24 44° 290° (WNW) 04:19:20 436.500 FM
Uosat F 01 Oct 04:32:17 04:35:34 17° 92° (E) 04:38:51 435.120 FM
Oscar 16 01 Oct 04:40:51 04:42:28 11° 302° (WNW) 04:44:05 437.025 USB, Beacon 2401.1428
SO-50 01 Oct 04:44:29 04:49:20 85° 238° (WSW) 04:54:13 436.795 FM
AO-27 01 Oct 04:47:42 04:51:40 22° 297° (WNW) 04:55:37 436.795 MHz FM
AO-7 01 Oct 04:48:54 04:56:26 37° 98° (E) 05:03:55 29.400 - 29.500 MHz
AO-Echo 01 Oct 04:49:48 04:52:57 17° 297° (WNW) 04:56:09 ?
Gurwin Techsat 1B 01 Oct 05:11:35 05:15:58 27° 295° (WNW) 05:20:21 435.225 FM
UOSAT-12 01 Oct 05:13:21 05:17:08 23° 43° (NE) 05:20:51 437.025 FM, 437.400 FM
OPAL 01 Oct 05:22:44 05:27:55 69° 256° (WSW) 05:33:09 ?
JAS-1B 01 Oct 05:23:30 05:25:39 12° 304° (WNW) 05:27:50 435.800 - 435.900 CW/SSB
RS-15 01 Oct 05:28:01 05:37:37 34° 327° (NNW) 05:47:19 29.354 - 29.394 USB, Beacon 29.352 USB
ISS 01 Oct 05:35:00 05:38:10 43° 221° (SW) 05:41:20 145.800 FM
MaSat-1 01 Oct 05:39:46 05:44:21 42° 110° (ESE) 05:48:46 437.345 MHz
TMSAT-1 01 Oct 05:40:44 05:44:34 21° 297° (WNW) 05:48:23 436.925 FM
JAS-2 01 Oct 06:08:44 06:14:50 35° 96° (E) 06:21:28 435.800 - 435.900 CW/SSB, 435.910 FM
Uosat F 01 Oct 06:09:46 06:14:41 55° 288° (WNW) 06:19:36 435.120 FM
STRAND 1 01 Oct 06:24:58 06:29:30 34° 68° (ENE) 06:34:04 ?
AO-7 01 Oct 06:41:29 06:49:23 51° 296° (WNW) 06:57:17 29.400 - 29.500 MHz
UOSAT-12 01 Oct 06:52:59 06:57:35 52° 242° (WSW) 07:02:05 437.025 FM, 437.400 FM
Hamsat 01 Oct 07:00:20 07:04:32 69° 101° (E) 07:08:41 145.90 MHz
MaSat-1 01 Oct 07:17:01 07:20:58 25° 306° (NW) 07:24:44 437.345 MHz
SO-67 01 Oct 07:37:53 07:40:36 21° 95° (E) 07:43:17 435.3500 MHz FM
RS-15 01 Oct 07:46:58 07:54:42 21° 2° (N) 08:02:33 29.354 - 29.394 USB, Beacon 29.352 USB
JAS-2 01 Oct 07:53:38 07:59:54 46° 291° (WNW) 08:06:51 435.800 - 435.900 CW/SSB, 435.910 FM
STRAND 1 01 Oct 08:04:17 08:08:41 29° 264° (W) 08:13:07 ?
AO-7 01 Oct 08:37:33 08:40:15 12° 318° (NW) 08:42:56 29.400 - 29.500 MHz
Hamsat 01 Oct 08:38:43 08:39:54 11° 298° (WNW) 08:41:04 145.90 MHz
Sapphire 01 Oct 09:01:26 09:05:29 22° 106° (ESE) 09:09:34 437.095 MHz 1200 baud AX-25 AFSK
HO-68 01 Oct 09:04:32 09:09:55 22° 92° (E) 09:15:15 435.675 MHz FM
SO-67 01 Oct 09:10:52 09:13:31 21° 290° (WNW) 09:16:09 435.3500 MHz FM
PCSat 01 Oct 09:25:52 09:30:51 39° 111° (ESE) 09:35:52 145.825 MHz
UKube-1 01 Oct 09:48:43 09:51:28 16° 93° (E) 09:54:12 145.840 MHz, 145.915 MHz
RS-15 01 Oct 10:01:37 10:11:36 36° 36° (NE) 10:21:51 29.354 - 29.394 USB, Beacon 29.352 USB
ZACube-1 01 Oct 10:28:55 10:31:41 16° 91° (E) 10:34:24 437.345 MHz
Sapphire 01 Oct 10:43:14 10:48:30 53° 304° (NW) 10:53:50 437.095 MHz 1200 baud AX-25 AFSK
HO-68 01 Oct 10:51:01 10:58:10 70° 290° (WNW) 11:05:18 435.675 MHz FM
Oscar 11 01 Oct 10:53:55 10:58:15 69° 102° (ESE) 11:02:32 145.825 FM, Beacon 2401.500 USB
PCSat 01 Oct 11:09:29 11:14:19 32° 310° (NW) 11:19:11 145.825 MHz
FUNcube-1 01 Oct 11:18:38 11:23:06 53° 99° (E) 11:27:27 145.950 - 145.970 MHz USB
UKube-1 01 Oct 11:23:42 11:27:53 46° 289° (WNW) 11:32:03 145.840 MHz, 145.915 MHz
ZACube-1 01 Oct 12:03:58 12:08:23 50° 288° (WNW) 12:12:41 437.345 MHz
RS-15 01 Oct 12:14:01 12:25:09 80° 241° (WSW) 12:36:46 29.354 - 29.394 USB, Beacon 29.352 USB
JAS-1B 01 Oct 12:28:43 12:32:12 15° 58° (ENE) 12:35:28 435.800 - 435.900 CW/SSB
Sapphire 01 Oct 12:31:39 12:33:13 11° 325° (NW) 12:34:48 437.095 MHz 1200 baud AX-25 AFSK
Oscar 11 01 Oct 12:32:16 12:33:50 12° 298° (WNW) 12:35:25 145.825 FM, Beacon 2401.500 USB
Oscar 16 01 Oct 12:38:39 12:42:13 19° 62° (ENE) 12:45:47 437.025 USB, Beacon 2401.1428
HO-68 01 Oct 12:41:06 12:44:37 14° 309° (NW) 12:48:07 435.675 MHz FM
AO-27 01 Oct 12:51:40 12:52:20 10° 56° (NE) 12:53:00 436.795 MHz FM
FUNcube-1 01 Oct 12:56:15 12:59:01 16° 297° (WNW) 13:01:46 145.950 - 145.970 MHz USB
Oscar 19 01 Oct 13:34:51 13:39:56 58° 72° (ENE) 13:45:02 437.125 CW, 437.150 USB
TMSAT-1 01 Oct 13:45:05 13:47:01 12° 58° (ENE) 13:48:56 436.925 FM
ITAMSAT 1 01 Oct 13:47:55 13:52:30 33° 67° (ENE) 13:57:07 435.822 SSB
Uribyol 2 01 Oct 13:48:35 13:53:16 36° 68° (ENE) 13:58:00 436.500 FM
Saudisat 1A 01 Oct 13:57:43 14:01:40 34° 115° (ESE) 14:05:39 436.775 MHz
AO-7 01 Oct 14:02:12 14:04:59 12° 42° (NE) 14:07:46 29.400 - 29.500 MHz
JAS-1B 01 Oct 14:14:29 14:22:10 82° 74° (ENE) 14:28:35 435.800 - 435.900 CW/SSB
Oscar 16 01 Oct 14:16:00 14:21:06 58° 259° (W) 14:26:15 437.025 USB, Beacon 2401.1428
AO-Echo 01 Oct 14:23:09 14:27:50 81° 75° (ENE) 14:32:35 ?
AO-27 01 Oct 14:25:46 14:30:56 75° 74° (ENE) 14:36:08 436.795 MHz FM
RS-15 01 Oct 14:28:52 14:35:44 19° 261° (W) 14:42:48 29.354 - 29.394 USB, Beacon 29.352 USB
Gurwin Techsat 1B 01 Oct 14:52:27 14:57:41 64° 73° (ENE) 15:02:57 435.225 FM
Oscar 19 01 Oct 15:16:16 15:19:38 17° 269° (W) 15:23:01 437.125 CW, 437.150 USB
TMSAT-1 01 Oct 15:20:48 15:26:06 85° 75° (ENE) 15:31:26 436.925 FM
ITAMSAT 1 01 Oct 15:27:27 15:31:58 30° 264° (W) 15:36:32 435.822 SSB
Uribyol 2 01 Oct 15:28:21 15:32:46 28° 265° (W) 15:37:14 436.500 FM
MaSat-1 01 Oct 15:31:11 15:34:34 83° 65° (ENE) 15:37:28 437.345 MHz
Saudisat 1A 01 Oct 15:37:26 15:41:16 28° 313° (NW) 15:45:06 436.775 MHz
Uosat F 01 Oct 15:45:37 15:49:40 25° 65° (ENE) 15:53:44 435.120 FM
AO-7 01 Oct 15:47:57 15:55:51 52° 64° (ENE) 16:03:47 29.400 - 29.500 MHz
AO-27 01 Oct 16:08:40 16:11:00 13° 271° (W) 16:13:20 436.795 MHz FM
JAS-1B 01 Oct 16:08:44 16:13:12 17° 268° (W) 16:17:18 435.800 - 435.900 CW/SSB
KITSAT 1 01 Oct 16:09:28 16:15:25 23° 103° (ESE) 16:21:21 435.175 FM
JAS-2 01 Oct 16:26:17 16:27:48 11° 55° (NE) 16:29:21 435.800 - 435.900 CW/SSB, 435.910 FM
Gurwin Techsat 1B 01 Oct 16:34:54 16:38:06 16° 269° (W) 16:41:18 435.225 FM
TMSAT-1 01 Oct 17:04:57 17:06:40 12° 272° (W) 17:08:24 436.925 FM
Uosat F 01 Oct 17:23:37 17:28:15 38° 262° (W) 17:32:56 435.120 FM
OPAL 01 Oct 17:32:59 17:37:26 30° 98° (E) 17:41:48 ?
AO-7 01 Oct 17:41:22 17:48:49 37° 262° (W) 17:56:20 29.400 - 29.500 MHz
Oscar 10/S400 01 Oct 17:47:45 18:06:03 53° 162° (SSE) 19:03:55 145.825 - 145.975 CW/USB, Beacon 145.810 USB
Sapphire 01 Oct 17:48:13 17:52:25 22° 45° (NE) 17:56:36 437.095 MHz 1200 baud AX-25 AFSK
Hamsat 01 Oct 17:53:33 17:57:44 50° 73° (ENE) 18:01:54 145.90 MHz
KITSAT 1 01 Oct 18:01:51 18:09:56 78° 302° (WNW) 18:18:04 435.175 FM
JAS-2 01 Oct 18:06:46 18:11:55 85° 75° (ENE) 18:17:24 435.800 - 435.900 CW/SSB, 435.910 FM
PCSat 01 Oct 18:13:21 18:18:19 35° 51° (NE) 18:23:15 145.825 MHz
STRAND 1 01 Oct 18:38:03 18:39:02 11° 88° (E) 18:40:00 ?
SO-50 01 Oct 19:00:14 19:04:05 29° 114° (ESE) 19:08:01 436.795 FM
OPAL 01 Oct 19:11:45 19:16:18 33° 295° (WNW) 19:20:45 ?
Sapphire 01 Oct 19:30:55 19:36:18 64° 245° (WSW) 19:41:39 437.095 MHz 1200 baud AX-25 AFSK
Hamsat 01 Oct 19:31:35 19:33:57 14° 269° (W) 19:36:19 145.90 MHz
HO-68 01 Oct 19:34:50 19:39:30 19° 54° (NE) 19:44:09 435.675 MHz FM
SO-67 01 Oct 19:42:54 19:46:18 62° 260° (W) 19:49:44 435.3500 MHz FM
PCSat 01 Oct 19:56:48 20:01:43 36° 249° (WSW) 20:06:35 145.825 MHz
JAS-2 01 Oct 19:57:49 19:57:57 10° 274° (W) 19:58:05 435.800 - 435.900 CW/SSB, 435.910 FM
KITSAT 1 01 Oct 20:00:35 20:06:44 23° 326° (NW) 20:12:53 435.175 FM
STRAND 1 01 Oct 20:13:42 20:18:53 88° 285° (WNW) 20:24:02 ?
SO-50 01 Oct 20:40:26 20:44:32 34° 312° (NW) 20:48:45 436.795 FM
UKube-1 01 Oct 20:44:59 20:47:35 16° 63° (ENE) 20:50:11 145.840 MHz, 145.915 MHz
UOSAT-12 01 Oct 21:04:06 21:08:29 45° 117° (ESE) 21:12:57 437.025 FM, 437.400 FM
PANSAT 01 Oct 21:16:40 21:17:58 11° 178° (S) 21:19:15 not established
HO-68 01 Oct 21:19:06 21:26:15 90° 253° (WSW) 21:33:28 435.675 MHz FM
ZACube-1 01 Oct 21:26:10 21:28:41 15° 63° (ENE) 21:31:14 437.345 MHz
Oscar 11 01 Oct 21:48:54 21:53:10 55° 73° (ENE) 21:57:26 145.825 FM, Beacon 2401.500 USB
STRAND 1 01 Oct 21:55:21 21:57:17 12° 302° (WNW) 21:59:13 ?
KITSAT 1 01 Oct 22:03:33 22:05:53 11° 356° (N) 22:08:13 435.175 FM
FUNcube-1 01 Oct 22:14:54 22:19:12 44° 72° (ENE) 22:23:35 145.950 - 145.970 MHz USB
ISS 01 Oct 22:16:53 22:20:07 52° 140° (SE) 22:23:22 145.800 FM
UKube-1 01 Oct 22:19:09 22:23:21 51° 260° (W) 22:27:36 145.840 MHz, 145.915 MHz
Saudisat 1A 01 Oct 22:23:57 22:27:55 31° 48° (NE) 22:31:52 436.775 MHz
UOSAT-12 01 Oct 22:44:56 22:48:49 25° 315° (NW) 22:52:45 437.025 FM, 437.400 FM
ZACube-1 01 Oct 23:00:03 23:04:33 62° 259° (W) 23:09:08 437.345 MHz
HO-68 01 Oct 23:10:50 23:14:50 16° 271° (W) 23:18:53 435.675 MHz FM
Oscar 11 01 Oct 23:27:32 23:29:41 13° 269° (W) 23:31:50 145.825 FM, Beacon 2401.500 USB
FUNcube-1 01 Oct 23:52:38 23:55:47 18° 268° (W) 23:59:00 145.950 - 145.970 MHz USB
ISS 01 Oct 23:54:06 23:56:58 26° 338° (NNW) 23:59:52 145.800 FM
KITSAT 1 02 Oct 00:00:17 00:05:26 18° 27° (NNE) 00:10:34 435.175 FM
Saudisat 1A 02 Oct 00:03:35 00:07:26 30° 246° (WSW) 00:11:17 436.775 MHz
RS-15 02 Oct 00:33:20 00:37:50 13° 96° (E) 00:42:18 29.354 - 29.394 USB, Beacon 29.352 USB
